HJ3GNC-16 Weather Reports


Display with metric or nautical units.
time (UTC)temp
F
wind
direction
speed
MPH
gust
MPH
rain 1hr
in
rain 24hr
in
rain mn
in
humidity
%
barometer
mb
20260505074221 77 240 0.0 0.0 0.00 0.00 0.00 88 1012.0
20260505072637 77 240 0.0 0.0 0.00 0.00 0.00 88 1013.0
20260505071053 77 240 0.0 0.0 0.00 0.00 0.00 88 1013.0
20260505065511 77 0 0.0 0.0 0.00 0.00 0.00 88 1013.0
20260505063927 77 0 0.0 0.0 0.00 0.00 0.00 88 1013.0
20260505062345 77 0 0.0 0.0 0.00 0.00 0.00 88 1013.0
20260505060800 77 0 0.0 0.0 0.00 0.00 0.00 88 1013.0
20260505055216 77 140 0.0 0.0 0.00 0.00 0.00 88 1013.0
20260505053633 77 140 0.0 0.0 0.00 0.00 0.00 88 1013.0
20260505052046 77 140 0.0 0.0 0.00 0.00 0.00 88 1014.0
20260505050502 77 140 0.0 0.0 0.00 0.00 0.00 88 1014.0
20260505041756 77 0 0.0 0.0 0.00 0.00 0.00 88 1014.0
20260505040213 77 0 0.0 0.0 0.00 0.00 0.00 88 1014.0
20260505033026 79 0 0.0 0.0 0.00 0.00 0.00 78 1014.0
20260505031443 79 0 0.0 0.0 0.00 0.00 0.00 78 1013.0
20260505025901 79 0 0.0 0.0 0.00 0.00 0.00 78 1013.0
20260505024314 79 0 0.0 0.0 0.00 0.00 0.00 78 1013.0
20260505022730 79 0 0.0 0.0 0.00 0.00 0.00 78 1013.0
20260505021147 79 0 0.0 0.0 0.00 0.00 0.00 78 1013.0
20260505015601 79 200 0.0 0.0 0.00 0.00 0.00 78 1013.0
20260505014018 79 200 0.0 0.0 0.00 0.00 0.00 78 1013.0
20260505012434 79 200 0.0 0.0 0.00 0.00 0.00 78 1012.0
20260505010849 79 200 0.0 0.0 0.00 0.00 0.00 78 1012.0
20260505005305 79 200 0.0 0.0 0.00 0.00 0.00 78 1012.0
20260505003714 79 200 0.0 0.0 0.00 0.00 0.00 78 1011.0
20260505002105 79 200 0.0 0.0 0.00 0.00 0.00 78 1010.0
20260505000523 79 200 0.0 0.0 0.00 0.00 0.00 78 1010.0
20260504234940 79 190 0.0 0.0 0.00 0.00 0.00 78 1010.0
20260504233401 79 190 0.0 0.0 0.00 0.00 0.00 78 1010.0
20260504231818 79 190 0.0 0.0 0.00 0.00 0.00 78 1009.0
20260504230231 79 170 0.0 0.0 0.00 0.00 0.00 78 1009.0
20260504224649 79 170 0.0 0.0 0.00 0.00 0.00 78 1009.0
20260504223108 79 170 0.0 0.0 0.00 0.00 0.00 78 1009.0
20260504221526 79 170 0.0 0.0 0.00 0.00 0.00 78 1009.0
20260504215942 84 180 0.0 0.0 0.00 0.00 0.00 61 1009.0
20260504214358 84 180 0.0 0.0 0.00 0.00 0.00 61 1009.0
20260504212812 84 180 0.0 0.0 0.00 0.00 0.00 61 1009.0
20260504211229 86 190 0.0 0.0 0.00 0.00 0.00 54 1009.0
20260504205645 88 180 0.0 0.0 0.00 0.00 0.00 55 1009.0
20260504204049 88 180 0.0 0.0 0.00 0.00 0.00 55 1009.0
20260504202504 88 180 0.0 0.0 0.00 0.00 0.00 55 1010.0
20260504200851 88 180 0.0 0.0 0.00 0.00 0.00 55 1010.0
20260504195307 88 190 0.0 0.0 0.00 0.00 0.00 51 1010.0
20260504193725 86 190 0.0 0.0 0.00 0.00 0.00 54 1010.0
20260504192147 86 190 0.0 0.0 0.00 0.00 0.00 54 1010.0
20260504190555 86 190 0.0 0.0 0.00 0.00 0.00 54 1010.0
20260504185014 86 210 0.0 0.0 0.00 0.00 0.00 54 1010.0
20260504183433 86 210 0.0 0.0 0.00 0.00 0.00 54 1010.0
20260504181848 86 210 0.0 0.0 0.00 0.00 0.00 54 1012.0
20260504180306 86 190 0.0 0.0 0.00 0.00 0.00 54 1011.0
20260504174724 86 190 0.0 0.0 0.00 0.00 0.00 54 1011.0
20260504173140 86 190 0.0 0.0 0.00 0.00 0.00 54 1011.0
20260504171555 86 190 0.0 0.0 0.00 0.00 0.00 54 1013.0
20260504151022 77 20 0.0 0.0 0.00 0.00 0.00 73 1014.0
20260504141327 77 350 0.0 0.0 0.00 0.00 0.00 73 1014.0
20260504100454 77 20 0.0 0.0 0.00 0.00 0.00 73 1012.0
20260504081339 77 0 0.0 0.0 0.00 0.00 0.00 73 1011.0